Location: Chassagnes
(44.4047°N, 4.1657°E)
Time: 12:32:44
(UTC+00:00)

S3M - Pass Details

Date: 27 October 2020
Orbit: 950 x 1003 km, 83.0° (Epoch: 23 November)

Event Time Altitude Azimuth Distance (km) Brightness Sun altitude
Rises 18:06:02 0° 175° (S) 3,608 7.0 -16.0°
Reaches altitude 10° 18:08:32 10° 172° (S) 2,668 6.2 -16.5°
Maximum altitude 18:14:31 62° 93° (E) 1,072 3.9 -17.6°
Drops below altitude 10° 18:20:35 10° 14° (NNE) 2,705 6.2 -18.6°
Sets 18:23:07 0° 12° (NNE) 3,663 6.9 -19.1°
